AZERSPACE 2 (IS-38)     
1 43632U 18074A   19266.15307161  .00000127  00000-0  00000+0 0  9995
2 43632   0.0239 166.5722 0001396  35.5795 259.7732  1.00269798  3848
HORIZONS 3E             
1 43633U 18074B   19266.23404931 -.00000040  00000-0  00000+0 0  9993
2 43633   0.0330  24.8236 0000728 238.5836 351.6541  1.00271919  3709
ARIANE 5 R/B            
1 43634U 18074C   19264.32095093  .00000459  00000-0  28059-3 0  9998
2 43634   6.3854  24.4338 7262713 112.5615 335.2251  2.29833923  8258
ARIANE 5 DEB [SYLDA]    
1 43635U 18074D   19265.89904735  .00017072  00000-0  33645-2 0  9999
2 43635   6.5281  17.7275 7128230 123.9736 324.5938  2.48250421  8446